ICEYE-X17 (52762 NORAD) Tracking and Keplerian Element Data

This shows tracking and keplerian element data for the satellite.

Feedback or suggestion? Click here.




ElementValue
Catalog52762
NameICEYE-X17
Epoch Orbit1261
Epoch Day229.16186552
Epoch Year2022
RAAN343.0473
Inclination97.5226
Eccentricity0.0010675
Argument of Perigee315.9527
Mean Anonmoly163.7802
Mean Motion15.13526915
Decay Rate4.724E-05
L11 52762U 22057AG 22229.16186552 .00004724 00000+0 26703-3 0 9996
L22 52762 97.5226 343.0473 0010675 315.9527 163.7802 15.13526915 12615

Live tracking and technical data element details for ICEYE-X17 (NORAD 52762). ICEYE-X17 can be tracked NOW for your location showing map with azimuth and elevation plus other details from your city location.

Track the satellite on the map from your city or location and see movement details for azimuth, elevation, latitude, longitude, range, height, and movement on the map or in text.







IsCatalogInMostPopularTable: catalog: 52762, numindb: 17
Update: records affected: 1



GetName: 52762 ICEYE-X17

Hit Count: updated at: Thu, 18 Aug 2022 19:47:48 GMT